Willimantic, CT

5:16 AM EDT on August 21, 2017 (GMT -0400)
Windham

Weather History for KIJD - November, 2011

Change the Weather History Date:

Thursday, November 10, 2011

  Actual Average Record
Temperature  
Mean Temperature 56 °F -  
Max Temperature 62 °F 54 °F 75 °F (1975)
Min Temperature 48 °F 31 °F 15 °F (1965)
Degree Days  
Heating Degree Days 8    
Growing Degree Days 6 (Base 50)    
Moisture  
Dew Point 57 °F    
Average Humidity 95    
Maximum Humidity 100    
Minimum Humidity 82    
Precipitation  
Precipitation 0.65 in - - ()
Sea Level Pressure  
Sea Level Pressure 29.76 in    
Wind  
Wind Speed 1 mph (WSW)    
Max Wind Speed 8 mph    
Max Gust Speed -    
Visibility 6 miles    
Events Rain    
Averages and records for this station are not official NWS values.
T = Trace of Precipitation, MM = Missing Value Source: NWS Daily Summary

Daily Weather History Graph

Daily Weather History Graph

Search for Another Location

Airport or City:

Trip Planner

Search our weather history database for the weather conditions in past years. The results will help you decide how hot, cold, wet, or windy it might be!

Date:

Astronomy

Nov. 10, 2011 Rise Set
Actual Time 6:31 AM EST 4:33 PM EST
Civil Twilight 6:01 AM EST 5:02 PM EST
Nautical Twilight 5:28 AM EST 5:36 PM EST
Astronomical Twilight 4:55 AM EST 6:08 PM EST
Moon 4:18 PM EST (11/10) 6:21 AM EST (11/10)
Length of Visible Light 11h 00m
Length of Day
10h 01m
Full, 100% of the Moon is Illuminated
Nov 10
Full
Nov 10
Full
Nov 18
Last Quarter
Nov 25
New
Dec 2
First Quarter

Hourly Weather History & Observations

Time (EST) Temp. Dew Point Humidity Pressure Visibility Wind Dir Wind Speed Gust Speed Precip Events Conditions
12:32 AM 55.4 °F 53.6 °F 94% 30.04 in 9.0 mi Calm Calm - N/A   Overcast
12:52 AM 55.9 °F 54.0 °F 93% 30.03 in 8.0 mi Calm Calm - N/A   Overcast
1:52 AM 55.0 °F 53.1 °F 93% 30.02 in 7.0 mi Calm Calm - N/A   Overcast
2:52 AM 54.0 °F 52.0 °F 93% 30.00 in 7.0 mi Calm Calm - N/A   Overcast
3:36 AM 53.6 °F 51.8 °F 94% 29.99 in 6.0 mi Calm Calm - N/A   Overcast
3:59 AM 53.6 °F 51.8 °F 94% 29.98 in 7.0 mi Calm Calm - N/A   Overcast
4:13 AM 53.6 °F 53.6 °F 100% 29.98 in 6.0 mi Calm Calm - N/A   Overcast
5:32 AM 53.6 °F 51.8 °F 94% 29.95 in 7.0 mi Calm Calm - N/A   Overcast
5:48 AM 55.4 °F 53.6 °F 94% 29.96 in 6.0 mi Calm Calm - N/A   Overcast
5:52 AM 54.0 °F 53.1 °F 97% 29.96 in 5.0 mi Calm Calm - N/A   Overcast
8:52 AM 57.9 °F 55.9 °F 93% 29.93 in 5.0 mi Calm Calm - 0.00 in   Overcast
9:32 AM 62.6 °F 57.2 °F 82% 29.91 in 7.0 mi Calm Calm - N/A   Overcast
9:52 AM 62.1 °F 59.0 °F 90% 29.91 in 10.0 mi SSE 6.9 mph - N/A   Overcast
10:52 AM 62.1 °F 59.0 °F 90% 29.87 in 10.0 mi SSE 3.5 mph - N/A   Overcast
11:42 AM 62.6 °F 59.0 °F 88% 29.84 in 8.0 mi South 4.6 mph - 0.00 in Rain Light Rain
11:52 AM 62.1 °F 60.1 °F 93% 29.83 in 6.0 mi Calm Calm - 0.00 in Rain Light Rain
12:10 PM 62.6 °F 60.8 °F 94% 29.81 in 4.0 mi South 3.5 mph - 0.00 in Rain Light Rain
12:25 PM 62.6 °F 60.8 °F 94% 29.81 in 2.0 mi Variable 3.5 mph - 0.00 in Rain Light Rain
12:41 PM 62.6 °F 60.8 °F 94% 29.78 in 7.0 mi Calm Calm - 0.01 in Rain Light Rain
12:52 PM 62.1 °F 60.1 °F 93% 29.78 in 10.0 mi SSE 3.5 mph - 0.01 in Rain Light Rain
1:21 PM 62.6 °F 60.8 °F 94% 29.76 in 8.0 mi Calm Calm - 0.01 in Rain Light Rain
1:31 PM 62.6 °F 60.8 °F 94% 29.75 in 1.8 mi South 4.6 mph - 0.05 in Rain Heavy Rain
1:34 PM 62.6 °F 60.8 °F 94% 29.75 in 1.2 mi Calm Calm - 0.07 in Rain Heavy Rain
1:44 PM 60.8 °F 60.8 °F 100% 29.74 in 2.0 mi Calm Calm - 0.11 in Rain Rain
1:52 PM 61.0 °F 60.1 °F 97% 29.74 in 4.0 mi Calm Calm - 0.12 in Rain Light Rain
2:27 PM 60.8 °F 59.0 °F 94% 29.72 in 1.8 mi Calm Calm - 0.09 in Rain Heavy Rain
2:42 PM 60.8 °F 59.0 °F 94% 29.71 in 2.0 mi Calm Calm - 0.14 in Rain Rain
2:52 PM 60.1 °F 60.1 °F 100% 29.71 in 2.5 mi Calm Calm - 0.16 in Rain Rain
3:01 PM 60.8 °F 60.8 °F 100% 29.71 in 1.2 mi Calm Calm - 0.04 in Rain Rain
3:27 PM 60.8 °F 59.0 °F 94% 29.70 in 1.8 mi Calm Calm - 0.12 in Rain Rain
3:39 PM 60.8 °F 59.0 °F 94% 29.69 in 1.2 mi NNW 3.5 mph - 0.16 in Rain Heavy Rain
3:52 PM 60.1 °F 59.0 °F 96% 29.68 in 1.5 mi NW 3.5 mph - 0.20 in Rain Rain
4:09 PM 60.8 °F 59.0 °F 94% 29.68 in 1.2 mi Calm Calm - 0.04 in Rain Rain
4:31 PM 60.8 °F 59.0 °F 94% 29.67 in 1.8 mi Calm Calm - 0.08 in Rain Light Rain
4:39 PM 59.0 °F 59.0 °F 100% 29.66 in 2.5 mi Calm Calm - 0.09 in Rain Light Rain
5:00 PM 59.0 °F 59.0 °F 100% 29.66 in 3.0 mi Calm Calm - 0.01 in Rain Light Rain
5:32 PM 59.0 °F 59.0 °F 100% 29.64 in 4.0 mi Calm Calm - 0.03 in Rain Light Rain
5:52 PM 59.0 °F 59.0 °F 100% 29.64 in 2.0 mi Calm Calm - 0.04 in Rain Light Rain
5:59 PM 59.0 °F 57.2 °F 94% 29.64 in 2.5 mi Calm Calm - 0.02 in Rain Light Rain
6:21 PM 59.0 °F 57.2 °F 94% 29.64 in 3.0 mi Calm Calm - 0.07 in Rain Light Rain
6:52 PM 57.9 °F 57.9 °F 100% 29.62 in 9.0 mi Calm Calm - 0.08 in Rain Light Rain
7:48 PM 57.2 °F 57.2 °F 100% 29.60 in 6.0 mi NW 3.5 mph - 0.04 in   Overcast
7:52 PM 57.9 °F 57.0 °F 97% 29.60 in 7.0 mi NW 4.6 mph - 0.04 in   Overcast
8:15 PM 57.2 °F 55.4 °F 94% 29.59 in 10.0 mi NW 5.8 mph - N/A   Overcast
8:25 PM 57.2 °F 55.4 °F 94% 29.58 in 10.0 mi NW 8.1 mph - N/A   Overcast
8:30 PM 57.2 °F 55.4 °F 94% 29.59 in 10.0 mi WNW 4.6 mph - N/A   Overcast
8:52 PM 57.0 °F 55.0 °F 93% 29.59 in 8.0 mi Variable 5.8 mph - N/A   Overcast
9:23 PM 53.6 °F 51.8 °F 94% 29.58 in 10.0 mi WSW 5.8 mph - N/A   Overcast
10:02 PM 51.8 °F 50.0 °F 94% 29.57 in 10.0 mi Calm Calm - N/A   Scattered Clouds
10:52 PM 51.1 °F 48.0 °F 89% 29.57 in 10.0 mi West 3.5 mph - N/A   Partly Cloudy
11:52 PM 48.9 °F 46.0 °F 90% 29.57 in 10.0 mi Calm Calm - N/A   Mostly Cloudy